User: anonymous   Login
Location: Unspecified
(0.0000°N, 0.0000°E)
Time: 09:32:39
(UTC+00:00)
Language:

Symphonie 2 - Orbit

View from above orbital plane
View from above orbital plane
View from above satellite
View from above satellite

Ground track
Ground track

The orbit data is extracted from the following two-line orbital elements,

1  8132U 75077A   18110.95853946 -.00000187 +00000-0 +00000-0 0  9997
2  8132 011.0584 312.7542 0006452 346.5358 344.5580 00.99960996112662
Epoch (UTC): 20 April 2018 23:00:17
Eccentricity: 0.0006452
inclination: 11.0584°
perigee height: 35846 km
apogee height: 35901 km
right ascension of ascending node: 312.7542°
argument of perigee: 346.5358°
revolutions per day: 0.99960996
mean anomaly at epoch: 344.5580°
orbit number at epoch: 11266

The dashed part of the orbit path shows where the satellite is in the earth's shadow,  

DLR